#timestamp,LO_Frequency,Hit,StdDev 
1645470015.8,286046999.8,N
1645470035.6,286046996.5,N
1645470055.4,286046998.9,N
1645470075.3,286047002.1,N
1645470095.1,286047000.1,N
1645470115.8,286047002.4,N
1645470135.7,286046999.3,N
1645470155.5,286047000.5,N
1645470175.4,286046997.4,N
1645470195.2,286046995.9,N
1645470215.0,286046993.6,N
1645470215.9,286046993.6,N
1645470235.8,286046993.6,N
1645470255.6,286046995.0,N
1645470275.4,286046997.2,N
1645470295.3,286046996.5,N
1645470315.1,286046997.3,N
1645470335.9,286046995.8,N
1645470355.7,286046997.3,N
1645470375.5,286046997.5,N
1645470395.4,286046990.9,N
1645470415.2,286046991.2,N
1645470435.0,286046992.2,N
1645470435.9,286046992.2,N
1645470455.8,286046993.9,N
1645470475.6,286046993.0,N
1645470495.5,286046986.1,Y
1645470515.3,286046986.1,P
1645470535.1,286046985.2,N
1645470555.9,286046988.0,N
1645470575.7,286046984.2,Y
1645470595.6,286046998.2,P
1645470615.4,286047002.0,N
1645470635.2,286047006.9,N
1645470655.1,286047008.1,N
1645470656.0,286047008.1,N
1645470675.8,286047010.7,N
1645470695.6,286047011.7,N
1645470715.5,286047011.5,N
1645470735.3,286047009.6,N
1645470755.2,286047008.5,N
1645470775.9,286047007.9,N
1645470795.7,286047013.9,N
1645470815.6,286047015.3,N
1645470835.4,286047014.3,N
1645470855.2,286047012.6,N
1645470875.1,286047011.2,N
1645470876.0,286047011.2,N
1645470895.8,286047010.5,N
1645470915.7,286047011.9,N
1645470935.5,286047007.8,N
1645470955.3,286047007.2,N
1645470975.2,286047009.8,N
1645470995.9,286047010.7,N
1645471015.7,286047007.2,N
1645471035.6,286047005.3,N
1645471055.4,286047002.0,N
1645471075.2,286047003.9,N
1645471095.1,286046996.1,N
1645471096.0,286046996.1,N
1645471115.8,286046990.3,N
1645471135.7,286046992.7,N
1645471155.5,286046994.2,N
1645471175.3,286046990.2,N
1645471195.2,286046991.0,N
1645471215.0,286046987.5,N
1645471215.9,286046987.5,N
1645471235.8,286046985.8,N
1645471255.6,286046991.1,N
1645471275.4,286046993.0,N
1645471295.3,286046994.1,N
1645471315.1,286046990.1,N
1645471316.0,286046990.1,N
1645471335.8,286046994.8,N
1645471355.7,286046996.3,N
1645471375.5,286046994.9,N
1645471395.3,286046995.4,N
1645471415.2,286046998.3,N
1645471435.0,286047001.0,N
1645471435.9,286047001.0,N
1645471455.8,286046998.8,N
1645471475.6,286046988.9,N
1645471495.4,286046987.8,N
1645471515.3,286046989.9,N
1645471535.1,286046987.7,N
1645471555.9,286046982.8,Y
1645471575.7,286046985.6,P
1645471595.5,286046982.8,P
1645471615.4,286046988.1,N
1645471635.2,286046990.0,N
1645471655.0,286046992.9,N
1645471655.9,286046992.9,N
1645471675.8,286046987.1,Y
1645471695.6,286046999.2,P
1645471715.5,286047003.3,N
1645471735.3,286047003.9,N
1645471755.1,286047005.9,N
1645471775.9,286047007.1,N
1645471795.7,286047005.2,N
1645471815.5,286047000.9,N
1645471835.4,286046997.4,N
1645471855.2,286047000.4,N
1645471875.0,286047005.6,N
1645471876.0,286047005.6,N
1645471895.8,286047006.1,N
1645471915.6,286047006.5,N
1645471935.5,286047010.4,N
1645471955.3,286047007.7,N
1645471975.1,286047002.0,N
1645471995.9,286047002.2,N
1645472015.7,286047000.2,N
1645472035.6,286047001.9,N
1645472055.4,286046995.6,N
1645472075.2,286046996.3,N
1645472095.1,286046994.4,N
1645472096.0,286046994.4,N
1645472115.8,286046995.0,N
1645472135.6,286047000.0,N
1645472155.5,286047001.8,N
1645472175.3,286047005.6,N
1645472195.1,286047003.2,N
1645472215.9,286047001.8,N
1645472235.7,286046997.9,N
1645472255.6,286046992.0,N
1645472275.4,286046987.6,N
1645472295.2,286046987.3,N
1645472315.1,286046989.5,N
1645472316.0,286046989.5,N
1645472335.8,286046990.9,N
1645472355.7,286046993.3,N
1645472375.5,286046998.2,N
1645472395.3,286047000.5,N
1645472415.2,286047000.0,N
1645472435.9,286047003.8,N
1645472455.7,286047007.5,N
1645472475.6,286047004.5,N
1645472495.4,286047000.4,N
1645472515.2,286046999.3,N
1645472535.1,286046993.5,N
1645472536.0,286046993.5,N
1645472555.8,286046998.0,N
1645472575.7,286047004.1,N
1645472595.5,286047004.2,N
1645472615.3,286046998.2,N
1645472635.2,286046996.9,N
1645472655.0,286046999.5,N
1645472655.9,286046999.5,N
1645472675.8,286046995.8,N
1645472695.6,286046993.9,N
1645472715.4,286046991.9,N
1645472735.3,286046990.1,N
1645472755.1,286046993.7,N
1645472775.8,286046994.7,N
1645472795.7,286046993.7,N
1645472815.5,286046995.7,N
1645472835.4,286046995.4,N
1645472855.2,286046999.5,N
1645472875.0,286047002.2,N
1645472875.9,286047002.2,N
1645472895.8,286047007.5,N
1645472915.6,286047009.1,N
1645472935.4,286047011.2,N
1645472955.3,286047006.1,N
1645472975.1,286047002.4,N
1645472995.9,286047002.7,N
1645473015.7,286046996.1,N
1645473035.5,286046990.3,N
1645473055.4,286046989.5,N
1645473075.2,286046986.9,N
1645473095.0,286046991.6,N
1645473095.9,286046991.6,N
1645473115.8,286046993.0,N
1645473135.6,286046992.4,N
1645473155.5,286046993.1,N
1645473175.3,286046996.3,N
1645473195.1,286046998.8,N
1645473215.9,286046997.5,N
1645473235.7,286046993.8,N
1645473255.5,286046993.4,N
1645473275.4,286046998.3,N
1645473295.2,286046999.0,N
1645473315.1,286046996.8,N
1645473316.0,286046996.8,N
1645473335.8,286046997.7,N
1645473355.6,286047002.6,N
1645473375.5,286047004.3,N
1645473395.3,286047001.0,N
1645473415.1,286047000.6,N
1645473435.9,286046999.2,N
1645473455.7,286046997.7,N
1645473475.6,286046993.7,N
1645473495.4,286046987.3,N
1645473515.2,286046990.2,N
1645473535.1,286046990.0,N
1645473536.0,286046990.0,N
1645473555.8,286046982.4,Y
1645473575.6,286046985.4,P
1645473595.5,286046992.1,N
